This demonstration page uses our WeatherBlox Daily Observations layout. Learn more.

Left ArrowRight Arrow

38.80484, -77.04692

Hourly Observations for February 12, 2021

Temp ( °F °C ) Dew Point ( °F °C ) Humidity (%) Winds ( mph kmh ) Pressure ( in mb ) Visibility ( mi km ) Precip ( " mm )
12:52 am 00:52 Cloudy with Light Snow 32 0 22 -5.6 66 66 NNE 10 17 30.33 1027 6 10 0.00 0.00
1:52 am 01:52 Cloudy with Light Snow 30 -1.1 23 -5 75 75 NE 14 22 30.32 1027 6 10 0.00 0.00
2:52 am 02:52 Cloudy with Light Snow 30 -1.1 22 -5.6 72 72 ENE 7 11 30.30 1026 9 14 0.00 0.00
3:52 am 03:52 Cloudy 31 -0.6 20 -6.7 64 64 NE 13 20 30.28 1026 10 16 0.00 0.00
4:52 am 04:52 Cloudy 30 -1.1 19 -7.2 64 64 NNE 10 17 30.29 1026 10 16 0.00 0.00
5:52 am 05:52 Cloudy 30 -1.1 17 -8.3 58 58 NNE 14 22 30.30 1026 10 16 0.00 0.00
6:52 am 06:52 Cloudy 30 -1.1 17 -8.3 58 58 NNE 10 17 30.32 1027 10 16 0.00 0.00
7:52 am 07:52 Cloudy 29 -1.7 17 -8.3 61 61 NE 13 20 30.33 1027 10 16 0.00 0.00
8:52 am 08:52 Cloudy 29 -1.7 17 -8.3 61 61 NE 8 13 30.35 1028 10 16 0.00 0.00
9:52 am 09:52 Cloudy 30 -1.1 18 -7.8 61 61 NE 9 15 30.35 1028 10 16 0.00 0.00
10:52 am 10:52 Cloudy 30 -1.1 17 -8.3 58 58 NE 6 9 30.36 1028 10 16 0.00 0.00
11:52 am 11:52 Cloudy 31 -0.6 19 -7.2 61 61 E 8 13 30.35 1028 10 16 0.00 0.00
12:52 pm 12:52 Cloudy 31 -0.6 19 -7.2 61 61 NNE 3 6 30.32 1027 10 16 0.00 0.00
1:52 pm 13:52 Cloudy 31 -0.6 20 -6.7 64 64 ENE 6 9 30.30 1026 10 16 0.00 0.00
2:52 pm 14:52 Cloudy 32 0 22 -5.6 66 66 NE 6 9 30.29 1026 10 16 0.00 0.00
3:15 pm 15:15 Cloudy 32 0 21 -6.1 64 64 NE 5 7 30.29 1026 10 16 0.00 0.00
3:52 pm 15:52 Cloudy 32 0 21 -6.1 64 64 NE 6 9 30.29 1026 10 16 0.00 0.00
4:07 pm 16:07 Cloudy 32 0 21 -6.1 64 64 NE 7 11 30.30 1026 10 16 0.00 0.00
4:18 pm 16:18 Cloudy 32 0 21 -6.1 64 64 NE 5 7 30.30 1026 10 16 0.00 0.00
4:32 pm 16:32 Cloudy 32 0 21 -6.1 64 64 ENE 6 9 30.30 1026 10 16 0.00 0.00
4:52 pm 16:52 Cloudy 32 0 22 -5.6 66 66 NE 6 9 30.29 1026 10 16 0.00 0.00
5:52 pm 17:52 Cloudy 31 -0.6 21 -6.1 67 67 NE 6 9 30.29 1026 10 16 0.00 0.00
6:38 pm 18:38 Cloudy 32 0 21 -6.1 64 64 NE 6 9 30.30 1026 10 16 0.00 0.00
6:52 pm 18:52 Cloudy 32 0 22 -5.6 66 66 NNE 6 9 30.30 1026 10 16 0.00 0.00
7:26 pm 19:26 Cloudy 31 -0.6 22 -5.6 69 69 NE 10 17 30.30 1026 10 16 0.00 0.00
7:52 pm 19:52 Cloudy 31 -0.6 22 -5.6 69 69 NE 7 11 30.30 1026 10 16 0.00 0.00
8:52 pm 20:52 Cloudy 31 -0.6 22 -5.6 69 69 NNE 8 13 30.31 1026 10 16 0.00 0.00
9:52 pm 21:52 Cloudy 31 -0.6 23 -5 72 72 NE 7 11 30.32 1027 10 16 0.00 0.00
10:52 pm 22:52 Cloudy 30 -1.1 24 -4.4 79 79 ENE 7 11 30.32 1027 10 16 0.00 0.00
11:52 pm 23:52 Cloudy 31 -0.6 23 -5 72 72 NE 10 17 30.31 1026 10 16 0.00 0.00

Powered by AerisWeather